This is the latest recevied weather packets stored in our database for station/object KD4UFD. If no packets are shown the sender has not sent any weather packets the latest 10 day(s).
| Time | Temp. | Humidity | Pressure | Rain* | Wind** | Luminosity | Snow |
|---|---|---|---|---|---|---|---|
| 1777549798 | 12.22° C | 79% | 1014.1 hPa | 0 mm | - | 46 W/m² | - |
| 1777549495 | 12.22° C | 79% | 1013.7 hPa | 0 mm | - | 41 W/m² | - |
| 1777549190 | 12.22° C | 79% | 1013.6 hPa | 0 mm | - | 38 W/m² | - |
| 1777548888 | 12.22° C | 79% | 1013.7 hPa | 0 mm | - | 36 W/m² | - |
| 1777548584 | 12.22° C | 79% | 1013.6 hPa | 0 mm | - | 32 W/m² | - |
| 1777548281 | 12.22° C | 80% | 1013.7 hPa | 0 mm | - | 28 W/m² | - |
| 1777547978 | 12.22° C | 80% | 1013.8 hPa | 0 mm | - | 24 W/m² | - |
| 1777547673 | 12.22° C | 79% | 1013.5 hPa | 0 mm | - | 20 W/m² | - |
| 1777547370 | 12.22° C | 79% | 1013.6 hPa | 0 mm | - | 16 W/m² | - |
| 1777547069 | 12.22° C | 79% | 1013.2 hPa | 0 mm | - | 11 W/m² | - |
| 1777546766 | 12.22° C | 79% | 1013.3 hPa | 0 mm | - | 6 W/m² | - |
| 1777546462 | 12.22° C | 78% | 1013.3 hPa | 0 mm | - | 4 W/m² | - |
| 1777546159 | 12.22° C | 80% | 1013 hPa | 0 mm | - | 2 W/m² | - |
| 1777545855 | 12.22° C | 79% | 1013.1 hPa | 0 mm | - | 1 W/m² | - |
| 1777545552 | 12.78° C | 78% | 1013 hPa | 0 mm | - | 0 W/m² | - |
| 1777545249 | 12.78° C | 78% | 1013.1 hPa | 0 mm | - | 0 W/m² | - |
| 1777544947 | 12.78° C | 79% | 1012.8 hPa | 0 mm | - | 0 W/m² | - |
| 1777544643 | 12.78° C | 79% | 1012.7 hPa | 0 mm | - | 0 W/m² | - |
| 1777544339 | 12.78° C | 79% | 1012.9 hPa | 0 mm | - | 0 W/m² | - |
| 1777544036 | 13.33° C | 78% | 1012.5 hPa | 0 mm | - | 0 W/m² | - |
| 1777543733 | 13.33° C | 78% | 1012.6 hPa | 0 mm | - | 0 W/m² | - |
| 1777543429 | 13.33° C | 78% | 1012.9 hPa | 0 mm | - | 0 W/m² | - |
| 1777543124 | 13.33° C | 78% | 1013.3 hPa | 0 mm | - | 0 W/m² | - |
| 1777542821 | 13.33° C | 78% | 1012.8 hPa | 0 mm | - | 0 W/m² | - |
| 1777542518 | 13.33° C | 78% | 1012.6 hPa | 0 mm | - | 0 W/m² | - |
* Rain latest hour (hover to see other rain measurements)
** Current wind speed in m/s (hover to see current wind gust speed)